Time,TemperatureF,DewpointF,PressureIn,WindDirection,WindDirectionDegrees,WindSpeedMPH,WindSpeedGustMPH,Humidity,HourlyPrecipIn,Conditions,Clouds,dailyrainin,SoftwareType,DateUTC
2013-03-31 00:03:00,54.0,-99.9,30.12,East,85,3.0,4.0,-999,-99.99,,,-99.99,,2013-03-31 04:03:00,
2013-03-31 00:13:00,54.0,-99.9,30.12,NE,52,4.0,5.0,-999,-99.99,,,-99.99,,2013-03-31 04:13:00,
2013-03-31 00:23:00,54.0,-99.9,30.12,NE,45,3.0,4.0,-999,-99.99,,,-99.99,,2013-03-31 04:23:00,
2013-03-31 00:33:00,54.0,-99.9,30.12,NE,56,3.0,3.0,-999,-99.99,,,-99.99,,2013-03-31 04:33:00,
2013-03-31 00:43:00,54.0,-99.9,30.12,East,84,4.0,6.0,-999,-99.99,,,-99.99,,2013-03-31 04:43:00,
2013-03-31 00:53:00,55.0,-99.9,30.12,ESE,106,5.0,7.0,-999,-99.99,,,-99.99,,2013-03-31 04:53:00,
2013-03-31 01:02:00,55.0,-99.9,30.11,ESE,102,7.0,8.0,-999,-99.99,,,-99.99,,2013-03-31 05:02:00,
2013-03-31 01:13:00,55.0,-99.9,30.11,ESE,103,7.0,8.0,-999,-99.99,,,-99.99,,2013-03-31 05:13:00,
2013-03-31 01:22:00,55.0,-99.9,30.11,ESE,110,10.0,11.0,-999,-99.99,,,-99.99,,2013-03-31 05:22:00,
2013-03-31 01:32:00,55.0,-99.9,30.10,ESE,105,10.0,11.0,-999,-99.99,,,-99.99,,2013-03-31 05:32:00,
2013-03-31 01:42:00,55.0,-99.9,30.10,ESE,116,9.0,10.0,-999,-99.99,,,-99.99,,2013-03-31 05:42:00,
2013-03-31 01:53:00,54.0,-99.9,30.10,ESE,118,9.0,9.0,-999,-99.99,,,-99.99,,2013-03-31 05:53:00,
2013-03-31 02:02:00,54.0,-99.9,30.10,ESE,121,8.0,9.0,-999,-99.99,,,-99.99,,2013-03-31 06:02:00,
2013-03-31 02:12:00,54.0,-99.9,30.09,ESE,118,7.0,8.0,-999,-99.99,,,-99.99,,2013-03-31 06:12:00,
2013-03-31 02:23:00,55.0,-99.9,30.09,ESE,117,7.0,8.0,-999,-99.99,,,-99.99,,2013-03-31 06:23:00,
2013-03-31 02:33:00,55.0,-99.9,30.09,ESE,122,8.0,10.0,-999,-99.99,,,-99.99,,2013-03-31 06:33:00,
2013-03-31 02:42:00,55.0,-99.9,30.09,SE,125,9.0,10.0,-999,-99.99,,,-99.99,,2013-03-31 06:42:00,
2013-03-31 02:53:00,55.0,-99.9,30.08,SE,125,9.0,10.0,-999,-99.99,,,-99.99,,2013-03-31 06:53:00,
2013-03-31 03:02:00,55.0,-99.9,30.08,SE,124,9.0,10.0,-999,-99.99,,,-99.99,,2013-03-31 07:02:00,
2013-03-31 03:12:00,55.0,-99.9,30.07,SE,126,8.0,9.0,-999,-99.99,,,-99.99,,2013-03-31 07:12:00,
2013-03-31 03:22:00,55.0,-99.9,30.07,ESE,122,9.0,9.0,-999,-99.99,,,-99.99,,2013-03-31 07:22:00,
2013-03-31 03:33:00,55.0,-99.9,30.06,ESE,122,9.0,9.0,-999,-99.99,,,-99.99,,2013-03-31 07:33:00,
2013-03-31 03:43:00,55.0,-99.9,30.06,SE,125,9.0,9.0,-999,-99.99,,,-99.99,,2013-03-31 07:43:00,
2013-03-31 03:53:00,55.0,-99.9,30.06,SE,125,8.0,9.0,-999,-99.99,,,-99.99,,2013-03-31 07:53:00,
2013-03-31 04:02:00,55.0,-99.9,30.05,ESE,122,8.0,9.0,-999,-99.99,,,-99.99,,2013-03-31 08:02:00,
2013-03-31 04:13:00,55.0,-99.9,30.05,SE,127,10.0,11.0,-999,-99.99,,,-99.99,,2013-03-31 08:13:00,
2013-03-31 04:22:00,55.0,-99.9,30.05,SE,130,10.0,11.0,-999,-99.99,,,-99.99,,2013-03-31 08:22:00,
2013-03-31 04:33:00,55.0,-99.9,30.04,SE,131,9.0,10.0,-999,-99.99,,,-99.99,,2013-03-31 08:33:00,
2013-03-31 04:42:00,55.0,-99.9,30.04,SE,131,11.0,13.0,-999,-99.99,,,-99.99,,2013-03-31 08:42:00,
2013-03-31 04:52:00,55.0,-99.9,30.04,SE,133,11.0,12.0,-999,-99.99,,,-99.99,,2013-03-31 08:52:00,
2013-03-31 05:02:00,55.0,-99.9,30.03,SE,131,12.0,14.0,-999,-99.99,,,-99.99,,2013-03-31 09:02:00,
2013-03-31 05:12:00,55.0,-99.9,30.03,SE,133,13.0,14.0,-999,-99.99,,,-99.99,,2013-03-31 09:12:00,
2013-03-31 05:22:00,55.0,-99.9,30.02,SE,133,13.0,14.0,-999,-99.99,,,-99.99,,2013-03-31 09:22:00,
2013-03-31 05:33:00,55.0,-99.9,30.02,SE,134,13.0,14.0,-999,-99.99,,,-99.99,,2013-03-31 09:33:00,
2013-03-31 05:43:00,56.0,-99.9,30.02,SE,134,14.0,15.0,-999,-99.99,,,-99.99,,2013-03-31 09:43:00,
2013-03-31 05:53:00,56.0,-99.9,30.02,SE,137,14.0,15.0,-999,-99.99,,,-99.99,,2013-03-31 09:53:00,
2013-03-31 06:03:00,56.0,-99.9,30.02,SE,138,13.0,15.0,-999,-99.99,,,-99.99,,2013-03-31 10:03:00,
2013-03-31 06:13:00,56.0,-99.9,30.02,SE,143,14.0,15.0,-999,-99.99,,,-99.99,,2013-03-31 10:13:00,
2013-03-31 06:24:00,56.0,-99.9,30.01,SE,140,13.0,16.0,-999,-99.99,,,-99.99,,2013-03-31 10:24:00,
2013-03-31 06:33:00,56.0,-99.9,30.01,SE,139,13.0,14.0,-999,-99.99,,,-99.99,,2013-03-31 10:33:00,
2013-03-31 06:42:00,56.0,-99.9,30.01,SE,143,13.0,14.0,-999,-99.99,,,-99.99,,2013-03-31 10:42:00,
2013-03-31 06:53:00,56.0,-99.9,30.01,SE,141,13.0,15.0,-999,-99.99,,,-99.99,,2013-03-31 10:53:00,
2013-03-31 07:03:00,56.0,-99.9,30.01,SE,146,14.0,15.0,-999,-99.99,,,-99.99,,2013-03-31 11:03:00,
2013-03-31 07:12:00,57.0,-99.9,30.01,SSE,147,14.0,15.0,-999,-99.99,,,-99.99,,2013-03-31 11:12:00,
2013-03-31 07:23:00,57.0,-99.9,30.01,SSE,153,14.0,15.0,-999,-99.99,,,-99.99,,2013-03-31 11:23:00,
2013-03-31 07:33:00,57.0,-99.9,30.01,SSE,154,14.0,15.0,-999,-99.99,,,-99.99,,2013-03-31 11:33:00,
2013-03-31 07:43:00,57.0,-99.9,30.00,SSE,162,14.0,18.0,-999,-99.99,,,-99.99,,2013-03-31 11:43:00,
2013-03-31 07:53:00,58.0,-99.9,30.00,South,170,15.0,17.0,-999,-99.99,,,-99.99,,2013-03-31 11:53:00,
2013-03-31 08:03:00,58.0,-99.9,30.00,South,178,16.0,17.0,-999,-99.99,,,-99.99,,2013-03-31 12:03:00,
2013-03-31 08:12:00,58.0,-99.9,30.01,South,186,14.0,15.0,-999,-99.99,,,-99.99,,2013-03-31 12:12:00,
2013-03-31 08:22:00,57.0,-99.9,30.01,SSW,211,10.0,11.0,-999,-99.99,,,-99.99,,2013-03-31 12:22:00,
2013-03-31 08:33:00,56.0,-99.9,30.01,SSW,204,11.0,12.0,-999,-99.99,,,-99.99,,2013-03-31 12:33:00,
2013-03-31 08:42:00,56.0,-99.9,30.01,SSW,207,10.0,11.0,-999,-99.99,,,-99.99,,2013-03-31 12:42:00,
2013-03-31 08:53:00,56.0,-99.9,30.01,SSW,203,11.0,12.0,-999,-99.99,,,-99.99,,2013-03-31 12:53:00,
2013-03-31 09:02:00,56.0,-99.9,30.01,SSW,207,11.0,12.0,-999,-99.99,,,-99.99,,2013-03-31 13:02:00,
2013-03-31 09:12:00,56.0,-99.9,30.00,SSW,206,9.0,10.0,-999,-99.99,,,-99.99,,2013-03-31 13:12:00,
2013-03-31 09:23:00,56.0,-99.9,30.00,SSW,212,9.0,9.0,-999,-99.99,,,-99.99,,2013-03-31 13:23:00,
2013-03-31 09:33:00,56.0,-99.9,30.01,SSW,211,9.0,10.0,-999,-99.99,,,-99.99,,2013-03-31 13:33:00,
2013-03-31 09:42:00,56.0,-99.9,30.00,SSW,199,9.0,10.0,-999,-99.99,,,-99.99,,2013-03-31 13:42:00,
2013-03-31 09:53:00,56.0,-99.9,30.00,SSW,193,11.0,12.0,-999,-99.99,,,-99.99,,2013-03-31 13:53:00,
2013-03-31 10:03:00,57.0,-99.9,30.00,South,191,11.0,12.0,-999,-99.99,,,-99.99,,2013-03-31 14:03:00,
2013-03-31 10:12:00,58.0,-99.9,30.00,South,191,12.0,13.0,-999,-99.99,,,-99.99,,2013-03-31 14:12:00,
2013-03-31 10:23:00,58.0,-99.9,30.00,SSW,194,11.0,12.0,-999,-99.99,,,-99.99,,2013-03-31 14:23:00,
2013-03-31 10:33:00,58.0,-99.9,30.00,South,187,12.0,13.0,-999,-99.99,,,-99.99,,2013-03-31 14:33:00,
2013-03-31 10:43:00,58.0,-99.9,30.00,SSW,193,12.0,13.0,-999,-99.99,,,-99.99,,2013-03-31 14:43:00,
2013-03-31 10:53:00,58.0,-99.9,29.99,South,184,12.0,13.0,-999,-99.99,,,-99.99,,2013-03-31 14:53:00,
2013-03-31 11:03:00,58.0,-99.9,29.99,South,186,13.0,14.0,-999,-99.99,,,-99.99,,2013-03-31 15:03:00,
2013-03-31 11:13:00,58.0,-99.9,29.98,South,187,14.0,14.0,-999,-99.99,,,-99.99,,2013-03-31 15:13:00,
2013-03-31 11:23:00,57.0,-99.9,29.98,South,180,15.0,16.0,-999,-99.99,,,-99.99,,2013-03-31 15:23:00,
2013-03-31 11:34:00,57.0,-99.9,29.98,South,182,16.0,17.0,-999,-99.99,,,-99.99,,2013-03-31 15:34:00,
2013-03-31 11:44:00,57.0,-99.9,29.98,South,189,19.0,20.0,-999,-99.99,,,-99.99,,2013-03-31 15:44:00,
2013-03-31 11:54:00,57.0,-99.9,29.98,South,186,18.0,20.0,-999,-99.99,,,-99.99,,2013-03-31 15:54:00,
2013-03-31 12:03:00,57.0,-99.9,29.97,South,183,19.0,21.0,-999,-99.99,,,-99.99,,2013-03-31 16:03:00,
2013-03-31 12:14:00,57.0,-99.9,29.97,South,189,20.0,22.0,-999,-99.99,,,-99.99,,2013-03-31 16:14:00,
2013-03-31 12:23:00,57.0,-99.9,29.97,South,189,21.0,23.0,-999,-99.99,,,-99.99,,2013-03-31 16:23:00,
2013-03-31 12:34:00,57.0,-99.9,29.97,South,187,21.0,24.0,-999,-99.99,,,-99.99,,2013-03-31 16:34:00,
2013-03-31 12:43:00,57.0,-99.9,29.97,South,188,21.0,23.0,-999,-99.99,,,-99.99,,2013-03-31 16:43:00,
2013-03-31 12:54:00,58.0,-99.9,29.96,South,186,21.0,23.0,-999,-99.99,,,-99.99,,2013-03-31 16:54:00,
2013-03-31 13:03:00,58.0,-99.9,29.96,South,189,22.0,24.0,-999,-99.99,,,-99.99,,2013-03-31 17:03:00,
2013-03-31 13:13:00,58.0,-99.9,29.95,South,185,22.0,24.0,-999,-99.99,,,-99.99,,2013-03-31 17:13:00,
2013-03-31 13:23:00,58.0,-99.9,29.95,South,186,24.0,26.0,-999,-99.99,,,-99.99,,2013-03-31 17:23:00,
2013-03-31 13:33:00,58.0,-99.9,29.94,South,187,23.0,26.0,-999,-99.99,,,-99.99,,2013-03-31 17:33:00,
2013-03-31 13:43:00,58.0,-99.9,29.94,South,186,25.0,28.0,-999,-99.99,,,-99.99,,2013-03-31 17:43:00,
2013-03-31 13:52:00,58.0,-99.9,29.93,South,190,24.0,27.0,-999,-99.99,,,-99.99,,2013-03-31 17:52:00,
2013-03-31 14:03:00,58.0,-99.9,29.93,South,191,25.0,27.0,-999,-99.99,,,-99.99,,2013-03-31 18:03:00,
2013-03-31 14:13:00,58.0,-99.9,29.91,SSW,192,27.0,30.0,-999,-99.99,,,-99.99,,2013-03-31 18:13:00,
2013-03-31 14:22:00,58.0,-99.9,29.91,South,191,28.0,31.0,-999,-99.99,,,-99.99,,2013-03-31 18:22:00,
2013-03-31 14:33:00,58.0,-99.9,29.91,South,191,28.0,31.0,-999,-99.99,,,-99.99,,2013-03-31 18:33:00,
2013-03-31 14:43:00,60.0,-99.9,29.90,SSW,202,23.0,26.0,-999,-99.99,,,-99.99,,2013-03-31 18:43:00,
2013-03-31 14:53:00,60.0,-99.9,29.90,SSW,194,21.0,26.0,-999,-99.99,,,-99.99,,2013-03-31 18:53:00,
2013-03-31 15:03:00,59.0,-99.9,29.89,South,191,19.0,22.0,-999,-99.99,,,-99.99,,2013-03-31 19:03:00,
2013-03-31 15:13:00,60.0,-99.9,29.88,SSW,196,21.0,25.0,-999,-99.99,,,-99.99,,2013-03-31 19:13:00,
2013-03-31 15:23:00,62.0,-99.9,29.88,SSW,206,26.0,30.0,-999,-99.99,,,-99.99,,2013-03-31 19:23:00,
2013-03-31 15:33:00,66.0,-99.9,29.88,SW,222,25.0,32.0,-999,-99.99,,,-99.99,,2013-03-31 19:33:00,
2013-03-31 15:43:00,66.0,-99.9,29.88,SW,224,25.0,31.0,-999,-99.99,,,-99.99,,2013-03-31 19:43:00,
2013-03-31 15:54:00,66.0,-99.9,29.88,SW,219,23.0,26.0,-999,-99.99,,,-99.99,,2013-03-31 19:54:00,
2013-03-31 16:03:00,67.0,-99.9,29.88,SW,218,29.0,33.0,-999,-99.99,,,-99.99,,2013-03-31 20:03:00,
2013-03-31 16:13:00,66.0,-99.9,29.88,SSW,211,24.0,28.0,-999,-99.99,,,-99.99,,2013-03-31 20:13:00,
2013-03-31 16:23:00,63.0,-99.9,29.87,SSW,208,26.0,32.0,-999,-99.99,,,-99.99,,2013-03-31 20:23:00,
2013-03-31 16:34:00,64.0,-99.9,29.87,SSW,204,26.0,28.0,-999,-99.99,,,-99.99,,2013-03-31 20:34:00,
2013-03-31 16:43:00,62.0,-99.9,29.86,SSW,197,21.0,23.0,-999,-99.99,,,-99.99,,2013-03-31 20:43:00,
2013-03-31 16:53:00,63.0,-99.9,29.85,SSW,204,23.0,27.0,-999,-99.99,,,-99.99,,2013-03-31 20:53:00,
2013-03-31 17:03:00,61.0,-99.9,29.86,SSW,196,19.0,21.0,-999,-99.99,,,-99.99,,2013-03-31 21:03:00,
2013-03-31 17:13:00,63.0,-99.9,29.86,SSW,208,24.0,28.0,-999,-99.99,,,-99.99,,2013-03-31 21:13:00,
2013-03-31 17:23:00,67.0,-99.9,29.85,SW,218,27.0,35.0,-999,-99.99,,,-99.99,,2013-03-31 21:23:00,
2013-03-31 17:34:00,67.0,-99.9,29.86,SW,224,26.0,31.0,-999,-99.99,,,-99.99,,2013-03-31 21:34:00,
2013-03-31 17:44:00,67.0,-99.9,29.87,SW,222,23.0,28.0,-999,-99.99,,,-99.99,,2013-03-31 21:44:00,
2013-03-31 17:54:00,66.0,-99.9,29.87,SW,221,28.0,32.0,-999,-99.99,,,-99.99,,2013-03-31 21:54:00,
2013-03-31 18:04:00,66.0,-99.9,29.86,SW,224,23.0,30.0,-999,-99.99,,,-99.99,,2013-03-31 22:04:00,
2013-03-31 18:13:00,66.0,-99.9,29.86,SW,224,23.0,30.0,-999,-99.99,,,-99.99,,2013-03-31 22:13:00,
2013-03-31 18:24:00,65.0,-99.9,29.87,SW,221,23.0,27.0,-999,-99.99,,,-99.99,,2013-03-31 22:24:00,
2013-03-31 18:33:00,65.0,-99.9,29.87,SW,215,23.0,28.0,-999,-99.99,,,-99.99,,2013-03-31 22:33:00,
2013-03-31 18:43:00,65.0,-99.9,29.87,SW,217,22.0,26.0,-999,-99.99,,,-99.99,,2013-03-31 22:43:00,
2013-03-31 18:53:00,64.0,-99.9,29.87,SW,217,21.0,25.0,-999,-99.99,,,-99.99,,2013-03-31 22:53:00,
2013-03-31 19:03:00,63.0,-99.9,29.86,SSW,213,24.0,28.0,-999,-99.99,,,-99.99,,2013-03-31 23:03:00,
2013-03-31 19:13:00,64.0,-99.9,29.87,SW,219,23.0,28.0,-999,-99.99,,,-99.99,,2013-03-31 23:13:00,
2013-03-31 19:22:00,63.0,-99.9,29.87,SW,218,21.0,28.0,-999,-99.99,,,-99.99,,2013-03-31 23:22:00,
2013-03-31 19:33:00,64.0,-99.9,29.87,SW,223,22.0,27.0,-999,-99.99,,,-99.99,,2013-03-31 23:33:00,
2013-03-31 19:43:00,63.0,-99.9,29.87,SW,222,22.0,26.0,-999,-99.99,,,-99.99,,2013-03-31 23:43:00,
2013-03-31 19:54:00,63.0,-99.9,29.87,SW,224,19.0,25.0,-999,-99.99,,,-99.99,,2013-03-31 23:54:00,
2013-03-31 20:03:00,63.0,-99.9,29.87,SW,221,18.0,20.0,-999,-99.99,,,-99.99,,2013-04-01 00:03:00,
2013-03-31 20:13:00,62.0,-99.9,29.87,SW,221,17.0,19.0,-999,-99.99,,,-99.99,,2013-04-01 00:13:00,
2013-03-31 20:23:00,63.0,-99.9,29.87,SW,224,19.0,23.0,-999,-99.99,,,-99.99,,2013-04-01 00:23:00,
2013-03-31 20:33:00,63.0,-99.9,29.87,SW,222,17.0,20.0,-999,-99.99,,,-99.99,,2013-04-01 00:33:00,
2013-03-31 20:43:00,62.0,-99.9,29.87,SW,223,18.0,21.0,-999,-99.99,,,-99.99,,2013-04-01 00:43:00,
2013-03-31 20:53:00,63.0,-99.9,29.87,SW,221,20.0,23.0,-999,-99.99,,,-99.99,,2013-04-01 00:53:00,
2013-03-31 21:03:00,63.0,-99.9,29.87,SW,222,18.0,23.0,-999,-99.99,,,-99.99,,2013-04-01 01:03:00,
2013-03-31 21:13:00,62.0,-99.9,29.87,SW,219,19.0,25.0,-999,-99.99,,,-99.99,,2013-04-01 01:13:00,
2013-03-31 21:23:00,63.0,-99.9,29.88,SW,223,18.0,21.0,-999,-99.99,,,-99.99,,2013-04-01 01:23:00,
2013-03-31 21:33:00,63.0,-99.9,29.88,SW,221,18.0,21.0,-999,-99.99,,,-99.99,,2013-04-01 01:33:00,
2013-03-31 21:43:00,63.0,-99.9,29.88,SW,221,20.0,25.0,-999,-99.99,,,-99.99,,2013-04-01 01:43:00,
2013-03-31 21:53:00,63.0,-99.9,29.88,SW,224,18.0,23.0,-999,-99.99,,,-99.99,,2013-04-01 01:53:00,
2013-03-31 22:03:00,64.0,-99.9,29.89,SW,222,20.0,26.0,-999,-99.99,,,-99.99,,2013-04-01 02:03:00,
2013-03-31 22:13:00,64.0,-99.9,29.90,SW,227,22.0,25.0,-999,-99.99,,,-99.99,,2013-04-01 02:13:00,
2013-03-31 22:23:00,64.0,-99.9,29.89,SW,226,27.0,34.0,-999,-99.99,,,-99.99,,2013-04-01 02:23:00,
2013-03-31 22:33:00,62.0,-99.9,29.90,WSW,238,28.0,38.0,-999,-99.99,,,-99.99,,2013-04-01 02:33:00,
2013-03-31 22:43:00,60.0,-99.9,29.90,SW,226,21.0,26.0,-999,-99.99,,,-99.99,,2013-04-01 02:43:00,
2013-03-31 22:53:00,60.0,-99.9,29.90,SW,231,17.0,20.0,-999,-99.99,,,-99.99,,2013-04-01 02:53:00,
2013-03-31 23:03:00,60.0,-99.9,29.90,SW,225,14.0,17.0,-999,-99.99,,,-99.99,,2013-04-01 03:03:00,
2013-03-31 23:12:00,60.0,-99.9,29.89,SW,225,13.0,16.0,-999,-99.99,,,-99.99,,2013-04-01 03:12:00,
2013-03-31 23:23:00,60.0,-99.9,29.89,SW,222,13.0,16.0,-999,-99.99,,,-99.99,,2013-04-01 03:23:00,
2013-03-31 23:35:00,60.0,-99.9,29.89,SW,220,15.0,17.0,-999,-99.99,,,-99.99,,2013-04-01 03:35:00,
2013-03-31 23:43:00,60.0,-99.9,29.89,SW,216,15.0,18.0,-999,-99.99,,,-99.99,,2013-04-01 03:43:00,
2013-03-31 23:53:00,60.0,-99.9,29.88,SW,219,18.0,20.0,-999,-99.99,,,-99.99,,2013-04-01 03:53:00,